This demonstration page uses our WeatherBlox Daily Observations layout. Learn more.

Left ArrowRight Arrow

39.12711, -84.51439

Hourly Observations for June 16, 2021

Temp ( °F °C ) Dew Point ( °F °C ) Humidity (%) Winds ( mph kmh ) Pressure ( in mb ) Visibility ( mi km ) Precip ( " mm )
12:53 am 00:53 Partly Cloudy 63 17.2 57 13.9 81 81 NE 3 6 30.00 1016 10 16 N/A
1:53 am 01:53 Partly Cloudy 62 16.7 57 13.9 84 84 N N/A 30.01 1016 10 16 N/A
2:53 am 02:53 Clear 60 15.6 56 13.3 86 86 N N/A 30.02 1017 10 16 N/A
3:53 am 03:53 Clear 59 15 56 13.3 90 90 N N/A 30.03 1017 10 16 N/A
4:53 am 04:53 Mostly Cloudy 58 14.4 55 12.8 90 90 N N/A 30.04 1017 10 16 N/A
5:53 am 05:53 Mostly Clear 57 13.9 55 12.8 93 93 N N/A 30.06 1018 10 16 N/A
6:53 am 06:53 Mostly Cloudy 57 13.9 55 12.8 93 93 N N/A 30.07 1018 10 16 N/A
7:53 am 07:53 Mostly Sunny 64 17.8 57 13.9 78 78 N N/A 30.08 1019 10 16 N/A
8:53 am 08:53 Sunny 68 20 50 10 53 53 NE 3 6 30.10 1019 10 16 N/A
9:53 am 09:53 Sunny 70 21.1 48 8.9 46 46 NE 6 9 30.11 1020 10 16 N/A
10:53 am 10:53 Sunny 73 22.8 47 8.3 40 40 undefined N/A 30.09 1019 10 16 N/A
11:53 am 11:53 Sunny 74 23.3 45 7.2 36 36 ENE 7 11 30.10 1019 10 16 N/A
12:53 pm 12:53 Sunny 75 23.9 47 8.3 37 37 E 7 11 30.09 1019 10 16 N/A
1:53 pm 13:53 Sunny 77 25 48 8.9 36 36 E 8 13 30.07 1018 10 16 N/A
2:53 pm 14:53 Mostly Sunny 79 26.1 48 8.9 34 34 NW 7 11 30.06 1018 10 16 N/A
3:53 pm 15:53 Mostly Sunny 79 26.1 47 8.3 32 32 N N/A 30.04 1017 10 16 N/A
4:53 pm 16:53 Sunny 79 26.1 47 8.3 32 32 N 7 11 30.04 1017 10 16 N/A
5:53 pm 17:53 Sunny 80 26.7 46 7.8 30 30 NW 5 7 30.03 1017 10 16 N/A
6:53 pm 18:53 Sunny 79 26.1 47 8.3 32 32 N N/A 30.02 1017 10 16 N/A
7:53 pm 19:53 Sunny 78 25.6 46 7.8 32 32 NNE 7 11 30.01 1016 10 16 N/A
8:53 pm 20:53 Sunny 70 21.1 54 12.2 57 57 N N/A 30.02 1017 10 16 N/A
9:53 pm 21:53 Clear 64 17.8 54 12.2 70 70 N N/A 30.03 1017 10 16 N/A
10:53 pm 22:53 Clear 63 17.2 52 11.1 68 68 N N/A 30.04 1017 10 16 N/A
11:53 pm 23:53 Partly Cloudy 60 15.6 54 12.2 80 80 N N/A 30.04 1017 10 16 N/A

Powered by AerisWeather